Temperature
18 18 18 18 18 18 18 18 18 18 18 18 18 18 18 18 18 18 18 18 18 18 18 18 18 18 18 17 17 17 17 17 17 17 17 16 16 16 16 16 16 16 16
18 18 18 18 18 18 18 18 18 18 18 18 18 18 18 18 18 18 18 18 18 18 18 18 18 18 18 18 17 17 17 17 17 17 17 16 16 16 16 16 16 16 16
18 18 18 18 18 18 18 18 18 18 18 18 18 18 18 18 18 18 18 18 18 18 18 18 18 18 18 18 17 17 17 17 17 17 17 17 16 16 16 16 16 16 16
18 18 18 18 18 18 18 18 18 18 18 18 18 18 18 18 18 18 18 18 18 18 18 18 18 18 18 18 18 17 17 17 17 17 17 17 17 16 16 16 16 16 16
18 18 18 18 18 18 18 18 18 18 18 18 18 18 18 18 18 18 18 18 18 18 18 18 18 18 18 18 18 18 17 17 17 17 17 17 16 16 16 16 16 16 16
18 18 18 18 18 18 18 18 18 18 18 18 18 19 19 19 19 19 18 18 18 18 18 18 18 18 18 18 18 17 17 17 17 17 17 17 16 16 16 16 16 16 16
18 19 18 18 18 18 18 18 18 18 18 18 18 18 19 19 19 19 19 19 18 18 18 18 18 18 18 18 17 17 17 17 17 17 17 17 16 16 16 16 16 16 16
19 19 19 19 18 18 18 18 18 18 18 18 18 18 18 19 19 19 19 19 19 19 18 18 18 18 17 18 18 17 17 17 17 17 17 16 16 16 16 16 16 16 16
19 19 19 19 18 18 18 18 18 18 18 18 18 18 18 18 19 19 19 19 19 19 18 18 18 18 17 17 17 17 17 17 17 17 16 16 16 16 16 16 16 16 16
19 19 19 19 19 18 18 18 18 18 18 18 18 18 18 18 18 18 19 19 19 18 18 18 18 18 17 17 17 17 17 17 17 17 17 16 16 16 16 16 16 16 16
19 19 19 19 19 19 19 19 18 18 18 18 18 18 18 18 18 18 18 18 18 18 18 18 18 18 17 17 17 17 17 17 17 16 16 16 16 16 16 16 16 16 16
19 19 19 19 19 19 19 19 18 18 18 18 18 18 18 18 18 18 18 18 18 18 18 18 18 17 17 17 17 17 17 17 16 16 16 16 16 16 16 16 16 16 15
19 19 19 19 19 19 18 18 18 18 18 18 18 18 18 18 18 18 18 18 18 18 18 17 17 17 17 17 17 17 17 16 16 16 16 16 16 16 16 16 15 15 15
20 20 19 19 19 19 18 18 18 18 18 18 18 18 18 18 18 18 18 18 17 17 17 17 17 17 17 16 16 16 16 16 16 16 16 16 16 16 16 15 15 15 15
20 20 19 19 19 19 18 18 18 18 18 18 18 18 18 18 18 18 18 18 17 17 17 17 17 17 16 16 16 16 16 16 16 16 16 15 15 15 15 15 15 15 15
20 20 19 19 19 19 19 18 18 18 18 18 18 18 18 18 18 18 18 18 17 17 17 17 17 16 16 16 16 16 16 16 15 15 15 15 15 15 15 15 15 15 14
20 20 19 19 19 18 18 18 18 18 18 18 18 18 18 18 18 17 17 17 17 17 17 17 16 16 16 16 16 15 15 15 15 15 15 15 15 15 15 14 14 14 14
20 20 19 19 19 18 18 18 18 18 18 18 18 17 17 17 17 17 17 17 17 17 17 16 16 16 16 15 15 15 15 15 15 15 15 15 14 14 14 14 14 14 14
20 19 19 19 19 18 18 18 18 18 18 18 17 17 17 17 17 17 17 17 17 17 17 16 16 16 16 15 15 15 14 14 14 14 14 14 14 14 14 14 14 14 14
19 19 19 19 19 18 18 18 18 18 18 18 17 17 17 17 17 17 17 17 16 16 16 16 16 16 15 15 15 14 14 14 14 14 14 14 14 13 13 13 13 13 13
19 19 19 19 18 18 18 18 18 18 17 17 17 17 17 17 17 17 16 16 16 16 16 16 16 15 15 15 15 14 14 14 14 13 13 13 13 13 13 13 13 13 13
19 19 19 18 18 18 17 18 18 17 17 17 17 17 17 17 17 16 16 16 16 16 16 16 15 15 15 15 15 14 14 13 13 13 13 13 13 13 13 13 13 12 12
19 18 18 18 18 18 18 18 18 17 17 17 17 17 16 16 16 16 16 16 16 16 16 16 15 15 15 15 14 14 14 13 13 13 13 13 12 12 12 12 12 12 12
18 18 18 18 18 18 18 18 18 17 17 17 17 16 16 16 16 16 16 16 15 15 15 15 15 15 14 14 14 14 13 13 13 13 13 12 12 12 12 12 12 11 11
18 18 18 18 18 17 17 17 17 17 17 16 16 16 16 16 16 16 15 15 15 15 15 15 15 14 14 14 14 13 13 13 12 13 12 12 12 12 12 12 11 11 11
18 18 18 18 18 17 17 17 17 16 16 16 16 16 16 15 15 15 15 15 15 15 14 14 14 14 14 14 13 13 13 13 12 12 12 12 12 11 11 11 11 11 11
Wind_Speed
3 4 3 4 5 7 5 4 3 2 1 2 3 2 1 2 3 7 11 14 15 14 13 12 11 11 11 11 11 11 11 11 11 10 10 10 9 9 9 8 8 8 8
4 3 3 2 2 4 5 4 3 3 2 1 1 2 2 2 3 6 10 12 15 14 14 13 12 12 12 12 12 12 12 12 12 11 11 11 10 10 10 10 9 9 9
5 3 2 2 3 4 4 3 2 2 3 3 3 3 2 2 3 4 8 9 11 13 14 14 14 13 13 13 13 13 13 13 13 13 12 12 11 12 12 11 10 10 10
6 3 2 2 3 4 3 3 2 2 2 2 2 2 2 1 3 4 6 8 10 10 13 15 14 14 14 14 14 14 14 14 14 13 13 12 12 12 12 12 11 11 11
5 4 2 2 3 2 2 3 3 2 2 2 3 3 3 2 3 4 4 5 8 10 11 13 15 14 14 14 14 14 14 14 14 14 13 13 13 12 12 12 12 12 11
5 4 3 3 3 2 1 1 2 1 2 3 3 2 2 3 3 3 4 4 5 8 10 11 12 12 14 14 14 14 14 14 14 14 14 14 14 13 13 13 13 13 13
4 3 1 2 2 2 2 2 2 2 3 2 1 1 3 4 4 4 3 3 3 5 8 10 12 11 11 14 15 15 14 14 15 14 14 14 14 13 13 13 12 12 13
4 5 3 3 3 2 2 3 2 2 3 3 2 1 2 2 2 4 4 5 5 4 5 8 10 11 10 10 13 15 14 14 15 14 14 14 13 13 13 14 14 13 13
5 3 4 3 3 3 3 4 4 4 4 3 3 2 2 2 1 2 4 4 4 3 3 4 7 9 11 10 10 13 14 13 12 12 12 12 12 13 13 14 14 14 14
5 4 4 3 2 2 3 4 4 4 4 4 3 3 3 2 1 1 2 2 3 3 4 4 4 5 8 8 9 11 12 12 11 11 11 11 12 12 12 13 13 13 12
5 4 4 3 3 2 2 2 1 3 3 4 3 3 3 3 4 3 3 2 2 2 2 3 2 3 6 7 8 10 12 12 11 10 9 9 10 10 11 11 12 12 12
4 4 4 3 3 3 2 3 2 3 3 4 3 3 2 2 3 3 4 3 3 3 2 2 2 2 4 5 7 10 11 10 9 7 6 6 7 7 8 9 10 10 10
4 5 4 4 3 3 3 3 3 3 3 4 3 3 3 3 3 2 3 3 3 2 1 1 1 2 3 5 6 9 10 10 9 7 6 5 4 4 6 7 7 7 8
3 5 5 5 4 3 3 3 3 3 3 4 4 3 3 3 3 3 3 3 2 2 2 2 1 2 4 6 7 9 9 10 9 7 6 4 3 3 3 4 5 5 6
4 6 5 5 4 4 3 3 3 3 2 3 3 3 3 3 3 2 2 3 2 2 2 2 2 2 4 6 8 7 8 9 8 7 6 5 4 3 3 3 3 3 3
3 4 5 4 4 4 4 3 3 3 3 3 3 2 2 3 2 2 2 2 2 2 2 1 1 3 3 5 7 7 7 9 8 7 6 5 5 4 4 4 3 4 4
4 4 5 5 4 4 4 4 4 4 4 3 3 2 2 2 2 3 2 2 2 1 2 1 1 3 3 4 5 5 6 7 6 7 7 6 5 5 4 4 5 5 5
4 4 4 5 5 5 4 4 4 3 3 3 2 2 2 2 2 2 2 2 1 1 2 2 2 2 2 4 4 3 3 5 6 7 8 7 6 6 6 6 6 6 7
5 5 5 4 4 4 4 4 4 3 3 2 2 2 3 2 2 2 2 2 2 2 1 2 3 2 2 3 3 3 3 3 4 7 8 7 7 7 6 6 7 7 7
5 4 4 4 4 3 3 3 4 3 3 2 2 3 3 2 2 3 3 2 2 2 1 2 2 3 3 3 3 3 3 3 3 4 6 7 8 7 7 7 7 8 7
6 4 4 4 4 4 4 3 3 4 3 3 3 3 3 3 2 1 2 1 2 2 1 1 2 2 2 3 3 3 2 3 2 3 3 4 5 5 6 7 8 8 9
4 4 4 4 4 3 2 2 2 2 2 3 3 3 3 3 3 3 2 1 1 2 1 1 1 2 3 3 3 3 3 2 2 3 3 3 4 4 6 7 9 11 11
5 4 4 4 4 3 3 3 2 2 3 3 3 3 5 3 4 3 3 4 3 3 2 1 1 1 2 2 3 3 3 2 2 3 3 3 3 3 4 8 14 13 13
4 5 4 4 3 4 5 3 3 4 4 3 3 4 4 2 3 2 3 3 3 3 3 3 1 1 1 2 3 3 3 3 2 2 2 2 2 2 3 6 13 14 14
4 4 4 4 4 4 5 5 4 2 3 3 3 3 3 3 3 4 3 3 2 2 2 3 3 2 2 3 3 2 2 3 2 2 2 2 1 1 2 4 9 14 14
4 4 4 4 4 4 6 5 5 3 3 3 3 3 3 3 4 5 4 3 3 3 2 2 2 2 3 4 5 4 3 3 2 1 2 2 1 1 1 2 5 9 10
Wind_Direction
133 136 158 178 181 173 169 187 203 180 171 212 226 220 216 201 139 136 153 173 176 179 182 186 190 193 194 195 196 199 200 203 203 205 205 204 204 202 203 204 206 207 206
125 134 153 171 176 169 168 178 187 170 192 225 239 243 236 207 172 151 162 178 184 187 191 193 196 200 201 202 201 204 207 209 208 209 211 211 211 213 214 214 215 217 218
143 163 170 169 164 174 165 171 196 178 191 201 218 232 236 217 197 175 168 175 186 193 196 198 201 204 205 205 207 208 211 213 213 212 211 213 215 219 221 221 222 222 223
155 175 180 175 177 180 170 183 197 197 207 215 221 239 239 201 210 195 187 185 181 186 196 202 204 206 207 208 209 211 212 213 215 215 215 215 219 224 224 224 226 226 227
163 179 184 165 189 197 195 210 165 199 211 221 226 221 227 216 216 224 207 196 187 178 181 197 204 206 208 209 211 212 214 214 214 216 218 219 222 225 226 225 225 228 229
179 186 186 183 204 194 191 188 158 219 226 240 253 240 240 218 221 217 218 210 189 188 186 185 189 204 211 211 211 212 214 216 217 219 221 221 222 225 228 229 229 231 231
185 183 222 176 201 195 199 204 187 210 232 237 255 278 263 231 216 207 212 217 201 205 191 181 186 192 199 211 214 215 216 219 218 219 221 223 226 225 223 226 228 229 232
192 196 193 205 199 185 211 224 205 219 241 217 209 229 267 271 257 221 197 208 211 206 201 195 188 187 192 193 208 214 217 219 221 222 221 221 222 223 225 226 227 228 232
199 202 183 215 204 198 202 216 211 222 234 242 225 212 228 244 281 272 221 214 198 196 205 191 193 193 198 191 195 203 210 216 221 223 223 222 223 225 228 228 230 232 233
201 191 190 202 218 220 199 223 212 222 227 244 247 234 231 226 218 282 298 280 226 214 216 220 197 187 196 186 179 185 196 205 213 219 223 224 226 227 227 228 230 232 233
200 189 181 191 198 218 218 227 252 232 239 245 250 243 243 233 223 224 251 267 271 251 230 218 196 175 174 169 167 174 186 195 203 210 217 223 228 229 227 229 231 233 232
190 190 182 184 194 218 218 217 230 219 243 255 259 256 238 230 226 229 241 244 244 247 231 206 182 153 161 156 167 168 171 176 185 195 205 217 226 228 228 230 232 232 233
185 183 192 179 195 210 216 219 217 234 237 249 246 256 260 249 243 238 239 247 251 252 243 223 168 160 161 143 147 154 156 160 167 174 183 194 207 218 227 231 230 233 233
185 167 179 181 192 207 224 213 230 228 228 239 247 240 256 258 246 238 239 244 258 252 216 213 166 143 127 131 137 145 148 155 159 162 166 173 180 194 210 218 218 223 221
194 168 181 183 189 201 225 226 224 247 241 242 254 250 257 260 253 245 246 238 232 254 244 203 186 137 128 120 135 142 141 150 153 155 160 163 168 180 195 201 201 198 196
203 174 184 191 196 198 210 229 232 234 236 234 234 239 258 280 288 265 251 249 229 235 249 200 171 129 123 130 138 136 137 143 150 152 157 162 167 171 175 173 170 167 166
197 193 195 200 206 206 206 212 230 225 225 233 246 232 234 247 279 289 287 270 256 222 229 204 118 116 112 114 131 137 143 144 147 156 160 163 168 172 167 160 150 141 138
203 197 200 202 211 211 207 215 238 238 229 227 233 255 260 250 239 268 290 281 270 216 197 200 167 138 138 147 147 158 162 156 150 160 161 160 164 164 162 156 153 151 147
205 204 201 205 217 216 207 215 225 237 239 232 227 237 250 255 266 261 266 284 292 272 194 196 188 157 154 162 157 172 177 164 168 166 166 167 167 165 163 161 160 158 154
204 206 207 210 212 220 225 223 217 224 234 230 225 230 236 228 238 250 253 253 270 285 245 207 193 165 155 162 171 188 189 178 183 172 164 170 174 173 171 168 166 162 158
203 197 205 207 210 216 229 224 223 223 221 230 227 228 225 201 185 211 259 277 270 253 245 220 198 163 162 167 191 192 189 177 189 184 169 177 172 176 183 187 183 175 168
201 195 200 201 212 222 191 185 216 251 241 240 240 245 230 194 185 185 186 186 235 244 243 237 219 196 182 176 171 184 182 187 199 176 184 202 187 186 183 183 184 180 176
198 198 203 202 199 178 150 156 185 233 241 247 247 248 259 231 174 186 189 205 215 206 198 219 242 241 200 175 178 196 203 206 211 177 186 214 197 185 173 177 177 180 182
196 200 205 200 193 187 171 169 184 223 237 239 239 236 241 226 208 195 198 206 210 200 204 206 197 235 202 165 188 201 202 200 223 215 186 208 194 191 161 156 178 181 185
202 203 198 192 193 180 169 171 169 221 232 243 248 240 229 211 196 185 206 221 218 197 177 149 146 141 123 142 161 181 202 203 224 204 182 202 195 195 169 165 184 189 190
205 204 199 192 194 187 176 181 184 216 226 229 230 230 218 203 176 178 204 222 228 226 193 162 156 178 186 182 184 201 214 219 238 198 176 195 197 186 216 176 172 184 194
Height
1540 1542 1543 1544 1544 1546 1547 1549 1550 1552 1553 1554 1555 1556 1556 1557 1558 1557 1557 1558 1559 1559 1560 1561 1562 1562 1563 1565 1566 1566 1567 1568 1570 1571 1572 1573 1574 1575 1576 1577 1578 1578 1579
1540 1542 1543 1544 1545 1546 1548 1549 1550 1552 1552 1553 1554 1555 1556 1556 1557 1557 1557 1557 1558 1558 1559 1560 1561 1561 1562 1563 1564 1565 1566 1567 1568 1569 1570 1571 1572 1573 1574 1575 1576 1577 1578
1540 1542 1543 1544 1545 1546 1548 1549 1550 1551 1552 1553 1554 1555 1555 1556 1556 1556 1556 1556 1557 1557 1558 1558 1559 1560 1561 1561 1562 1563 1564 1565 1566 1567 1568 1569 1570 1571 1572 1573 1574 1575 1575
1541 1542 1543 1544 1545 1546 1547 1548 1549 1551 1551 1552 1553 1554 1554 1554 1555 1555 1555 1555 1555 1556 1556 1557 1557 1558 1559 1560 1560 1561 1562 1563 1564 1565 1566 1567 1568 1569 1570 1570 1571 1572 1573
1540 1541 1542 1544 1545 1546 1547 1548 1549 1550 1550 1551 1552 1552 1552 1553 1553 1554 1554 1554 1554 1554 1554 1555 1555 1556 1557 1557 1558 1559 1560 1560 1561 1562 1563 1564 1565 1566 1567 1568 1568 1569 1570
1540 1541 1542 1543 1544 1545 1546 1547 1548 1548 1549 1550 1550 1551 1551 1551 1551 1552 1552 1553 1553 1553 1553 1553 1553 1554 1554 1555 1556 1556 1557 1558 1559 1559 1560 1561 1561 1562 1563 1564 1565 1566 1567
1539 1540 1541 1542 1543 1544 1544 1545 1546 1547 1548 1548 1549 1549 1549 1549 1549 1550 1550 1551 1551 1551 1551 1551 1551 1552 1552 1552 1553 1554 1554 1555 1556 1556 1557 1558 1558 1559 1560 1561 1561 1562 1563
1538 1540 1540 1541 1542 1542 1543 1544 1544 1545 1546 1547 1547 1548 1548 1548 1547 1548 1548 1548 1549 1549 1549 1549 1549 1549 1550 1550 1550 1551 1552 1552 1553 1553 1554 1554 1555 1556 1556 1557 1558 1558 1559
1537 1538 1539 1540 1540 1541 1541 1542 1543 1543 1544 1545 1546 1547 1547 1546 1545 1546 1546 1546 1547 1547 1547 1547 1547 1547 1547 1547 1547 1548 1548 1549 1549 1550 1550 1551 1551 1552 1553 1553 1554 1554 1555
1536 1537 1537 1538 1538 1539 1540 1540 1541 1542 1543 1543 1544 1544 1545 1544 1544 1544 1544 1544 1544 1544 1545 1545 1545 1545 1544 1544 1544 1545 1545 1546 1546 1546 1547 1547 1548 1548 1549 1549 1550 1550 1551
1534 1535 1536 1536 1537 1537 1538 1538 1539 1539 1540 1541 1541 1541 1542 1542 1542 1542 1542 1542 1542 1542 1542 1542 1542 1542 1542 1542 1541 1542 1542 1543 1543 1543 1544 1544 1544 1544 1545 1545 1546 1546 1547
1532 1533 1534 1535 1535 1535 1536 1536 1537 1537 1538 1538 1538 1539 1539 1539 1539 1539 1539 1539 1539 1539 1539 1539 1539 1539 1539 1539 1539 1539 1539 1539 1540 1540 1540 1540 1540 1541 1541 1541 1541 1542 1542
1531 1531 1532 1532 1533 1533 1534 1534 1535 1535 1535 1535 1536 1536 1536 1536 1537 1537 1537 1536 1536 1536 1537 1536 1536 1536 1536 1535 1536 1536 1536 1536 1536 1537 1537 1537 1537 1537 1537 1537 1538 1538 1538
1529 1529 1530 1530 1530 1531 1532 1532 1532 1533 1533 1533 1533 1533 1533 1534 1534 1534 1534 1534 1534 1534 1534 1534 1534 1534 1533 1532 1532 1533 1533 1533 1534 1534 1534 1534 1534 1534 1534 1534 1534 1534 1535
1527 1527 1528 1528 1528 1529 1529 1530 1530 1530 1531 1531 1531 1531 1531 1531 1531 1531 1531 1531 1532 1531 1531 1530 1531 1531 1531 1530 1530 1530 1530 1531 1531 1531 1531 1531 1531 1531 1531 1531 1531 1532 1532
1525 1525 1525 1526 1526 1526 1527 1527 1528 1528 1528 1528 1528 1528 1528 1528 1528 1529 1529 1529 1529 1529 1528 1528 1528 1528 1528 1528 1528 1528 1528 1528 1528 1529 1529 1529 1529 1529 1529 1529 1529 1529 1529
1522 1523 1523 1523 1524 1524 1524 1525 1525 1525 1526 1526 1526 1526 1526 1526 1526 1526 1526 1526 1526 1526 1525 1525 1525 1525 1526 1526 1526 1526 1526 1526 1526 1526 1526 1526 1526 1526 1526 1526 1526 1526 1526
1519 1520 1520 1521 1521 1522 1522 1522 1522 1523 1523 1523 1523 1523 1524 1524 1523 1523 1523 1523 1524 1523 1523 1522 1523 1523 1523 1524 1524 1524 1524 1524 1524 1524 1524 1524 1524 1524 1524 1524 1524 1524 1524
1516 1517 1518 1518 1519 1519 1519 1520 1520 1521 1521 1521 1521 1521 1521 1521 1521 1521 1521 1521 1521 1521 1521 1521 1521 1521 1521 1521 1521 1522 1522 1522 1522 1522 1522 1522 1522 1522 1522 1522 1521 1522 1522
1513 1514 1515 1515 1516 1516 1517 1517 1518 1518 1518 1518 1518 1518 1518 1518 1517 1518 1518 1518 1518 1518 1518 1518 1518 1518 1518 1518 1519 1519 1519 1520 1520 1520 1519 1519 1520 1520 1520 1519 1519 1519 1519
1510 1511 1512 1512 1512 1513 1514 1514 1515 1515 1515 1515 1515 1515 1515 1514 1515 1515 1515 1515 1515 1515 1515 1515 1516 1515 1515 1515 1516 1516 1517 1517 1517 1517 1517 1517 1517 1517 1517 1517 1517 1517 1517
1507 1508 1508 1508 1509 1510 1511 1511 1512 1512 1512 1512 1512 1512 1512 1511 1511 1511 1512 1512 1512 1512 1512 1512 1512 1512 1512 1513 1513 1513 1514 1514 1514 1515 1515 1515 1515 1514 1514 1514 1514 1514 1514
1503 1503 1504 1505 1505 1505 1506 1507 1508 1508 1508 1509 1509 1508 1509 1509 1509 1508 1508 1509 1509 1509 1509 1510 1510 1509 1510 1510 1510 1511 1511 1511 1511 1511 1512 1512 1513 1512 1512 1511 1512 1512 1511
1499 1500 1500 1501 1502 1502 1503 1503 1503 1504 1504 1505 1505 1505 1505 1505 1506 1505 1506 1506 1506 1506 1506 1506 1506 1506 1507 1507 1508 1508 1508 1508 1509 1509 1509 1510 1510 1510 1510 1509 1509 1509 1509
1495 1496 1497 1498 1498 1499 1499 1500 1500 1500 1501 1500 1501 1501 1502 1502 1502 1502 1503 1503 1503 1503 1503 1503 1503 1503 1504 1504 1504 1505 1505 1505 1505 1506 1506 1506 1506 1507 1507 1506 1507 1507 1507
1493 1494 1494 1494 1495 1495 1496 1496 1496 1496 1496 1496 1497 1497 1498 1498 1498 1498 1499 1499 1499 1499 1500 1500 1500 1500 1500 1501 1501 1501 1502 1502 1502 1502 1502 1503 1503 1504 1504 1504 1504 1504 1504